The Dalles, WA

1:07 PM PDT on October 13, 2019 (GMT -0700)
Columbia Gorge Regional-The Dalles

Weather History for KDLS - May, 2019

Change the Weather History Date:

Sunday, May 5, 2019

  Actual Average Record
Temperature  
Mean Temperature 67 °F -  
Max Temperature 80 °F 71 °F 91 °F (1953)
Min Temperature 55 °F 46 °F 33 °F (1965)
Cooling Degree Days 2    
Growing Degree Days 17 (Base 50)    
Moisture  
Dew Point 45 °F    
Average Humidity 46    
Maximum Humidity 67    
Minimum Humidity 28    
Precipitation  
Precipitation 0.00 in - - ()
Sea Level Pressure  
Sea Level Pressure 29.78 in    
Wind  
Wind Speed 12 mph (NW)    
Max Wind Speed 18 mph    
Max Gust Speed 24 mph    
Visibility 10 miles    
Events      
Averages and records for this station are not official NWS values.
T = Trace of Precipitation, MM = Missing Value Source: NWS Daily Summary

Daily Weather History Graph

Daily Weather History Graph

Search for Another Location

Airport or City:

Astronomy

May. 05, 2019 Rise Set
Actual Time 5:46 AM PDT 8:16 PM PDT
Civil Twilight 5:13 AM PDT 8:50 PM PDT
Nautical Twilight 4:31 AM PDT 9:32 PM PDT
Astronomical Twilight 3:44 AM PDT 10:20 PM PDT
Moon 6:36 AM PDT (5/5) 9:15 PM PDT (5/5)
Length of Visible Light 15h 36m
Length of Day
14h 29m
New Moon, 1% of the Moon is Illuminated
May 5
New Moon
May 11
First Quarter
May 18
Full
May 26
Last Quarter
Jun 3
New

Hourly Weather History & Observations

Time (PDT) Temp. Dew Point Humidity Pressure Visibility Wind Dir Wind Speed Gust Speed Precip Events Conditions
12:53 AM 63.0 °F 44.1 °F 50% 29.78 in 10.0 mi NW 13.8 mph - N/A   Clear
1:53 AM 60.1 °F 45.0 °F 57% 29.78 in 10.0 mi NW 8.1 mph - N/A   Clear
2:53 AM 59.0 °F 45.0 °F 60% 29.79 in 10.0 mi WNW 9.2 mph - N/A   Clear
3:53 AM 57.9 °F 45.0 °F 62% 29.79 in 10.0 mi NW 9.2 mph - N/A   Clear
4:53 AM 55.9 °F 44.1 °F 64% 29.80 in 10.0 mi NNW 10.4 mph - N/A   Clear
5:53 AM 55.9 °F 45.0 °F 67% 29.80 in 10.0 mi NNW 15.0 mph - N/A   Clear
6:53 AM 55.9 °F 45.0 °F 67% 29.81 in 10.0 mi NW 11.5 mph - N/A   Clear
7:53 AM 59.0 °F 45.0 °F 60% 29.82 in 10.0 mi NNW 17.3 mph 24.2 mph N/A   Clear
8:53 AM 63.0 °F 45.0 °F 52% 29.82 in 10.0 mi NNW 18.4 mph - N/A   Clear
9:53 AM 64.9 °F 45.0 °F 48% 29.81 in 10.0 mi NNW 16.1 mph - N/A   Clear
10:53 AM 70.0 °F 46.0 °F 42% 29.81 in 10.0 mi NNW 13.8 mph - N/A   Clear
11:53 AM 73.0 °F 43.0 °F 34% 29.79 in 10.0 mi Variable 5.8 mph - N/A   Clear
12:53 PM 75.0 °F 42.1 °F 31% 29.78 in 10.0 mi Variable 3.5 mph - N/A   Clear
1:53 PM 77.0 °F 41.0 °F 28% 29.75 in 10.0 mi Variable 3.5 mph - N/A   Clear
2:53 PM 79.0 °F 44.1 °F 29% 29.74 in 10.0 mi NNW 9.2 mph - N/A   Clear
3:53 PM 79.0 °F 45.0 °F 30% 29.73 in 10.0 mi NNW 13.8 mph - N/A   Clear
4:53 PM 78.1 °F 46.9 °F 33% 29.72 in 10.0 mi NNW 17.3 mph - N/A   Clear
5:53 PM 77.0 °F 46.9 °F 34% 29.73 in 10.0 mi NW 16.1 mph 23.0 mph N/A   Clear
6:53 PM 75.0 °F 46.9 °F 37% 29.73 in 10.0 mi NNW 10.4 mph 24.2 mph N/A   Clear
7:53 PM 71.1 °F 46.0 °F 41% 29.75 in 10.0 mi NNW 10.4 mph - N/A   Scattered Clouds
8:53 PM 68.0 °F 45.0 °F 43% 29.76 in 10.0 mi NW 11.5 mph - N/A   Clear
9:53 PM 66.9 °F 44.1 °F 44% 29.78 in 10.0 mi NW 8.1 mph - N/A   Clear
10:53 PM 64.9 °F 44.1 °F 47% 29.79 in 10.0 mi NW 10.4 mph - N/A   Clear
11:53 PM 64.9 °F 44.1 °F 47% 29.81 in 10.0 mi NNW 11.5 mph - N/A   Clear